Regional Weather Roundup
Issued by NWS Upton, NY

Current Version | Previous Version | Graphics & Text | Print | Product List | Glossary Off
Versions: 1 2 3 4 5 6 7 8 9 10 11 12 13 14 15 16 17 18 19 20 21 22 23 24 25 26 27

000
ASUS41 KOKX 191605
RWROKX

REGIONAL WEATHER ROUNDUP
NATIONAL WEATHER SERVICE NEW YORK NY
1200 PM EDT SAT APR 19 2014

NOTE: "FAIR" INDICATES FEW OR NO CLOUDS BELOW 12,000 FEET WITH NO
SIGNIFICANT WEATHER AND/OR OBSTRUCTIONS TO VISIBILITY.

NYZ071-072-176-178-NJZ106-104-191700-
NEW YORK CITY METRO AREA


CITY           SKY/WX    TMP DP  RH WIND       PRES   REMARKS
CENTRAL PARK   SUNNY     62  17  17 VRB7G17   30.29S
LAGUARDIA APRT PTSUNNY   60  23  24 NW10      30.26F
KENNEDY INTL   PTSUNNY   62  27  26 N14G22    30.27F
NEWARK/LIBERTY PTSUNNY   63  22  20 N10G18    30.27F
TETERBORO      SUNNY     63  24  22 NW16      30.26S
$$

NYZ177-179-078>081-191700-
LONG ISLAND NEW YORK

CITY           SKY/WX    TMP DP  RH WIND       PRES   REMARKS
FARMINGDALE    SUNNY     60  32  34 NW5G16    30.26F
ISLIP          MOSUNNY   60  29  30 N12G21    30.24F
SHIRLEY        MOSUNNY   60  29  30 N12G22    30.26F
WESTHAMPTON    MOSUNNY   61  28  28 N15G23    30.25F
MONTAUK POINT    N/A     52  37  56 W9        30.24S
$$

NYZ052-065-067-191700-
HUDSON VALLEY

CITY           SKY/WX    TMP DP  RH WIND       PRES   REMARKS
WHITE PLAINS   SUNNY     60  25  26 NW12G20   30.25S
NEWBURGH       SUNNY     57  30  35 N12       30.28F
MONTGOMERY     SUNNY     59  26  28 NW12G24   30.26F
POUGHKEEPSIE   SUNNY     60  27  28 NW7       30.26F
ALBANY         MOSUNNY   55  33  43 N7        30.30S
$$

NJZ001-105-106-008-010-013-015-019>022-104-191700-
NEW JERSEY

CITY           SKY/WX    TMP DP  RH WIND       PRES   REMARKS
NEWARK/LIBERTY PTSUNNY   63  22  20 N10G18    30.27F
TETERBORO      SUNNY     63  24  22 NW16      30.26S
CALDWELL       SUNNY     60  22  23 NW6       30.28F
MORRISTOWN     SUNNY     61  19  20 N10G23    30.28F
SOMERVILLE     SUNNY     63  20  19 N13G20    30.26F
LINDEN         FAIR      64  26  24 NW13G21   30.29F
SUSSEX         SUNNY     59  30  33 VRB7      30.28F
ANDOVER          N/A     57  27  31 NE9       30.29F
TRENTON        SUNNY     61  29  29 N8G20     30.28F
MILLVILLE      MOSUNNY   61  38  42 CALM      30.27F
ATLANTIC CITY  MOSUNNY   61  34  36 VRB7      30.27F
WRIGHTSTOWN    SUNNY     62  34  34 NE10      30.25F
TOMS RIVER     MOSUNNY   61  34  36 N10       30.27F
BELMAR         SUNNY     61  32  33 N15       30.26F
$$

PAZ047>061-062-071-191700-
EASTERN PENNSYLVANIA

CITY           SKY/WX    TMP DP  RH WIND       PRES   REMARKS
PHILADELPHIA   PTSUNNY   64  29  26 N13       30.28F
ALLENTOWN      SUNNY     61  23  23 N14       30.30S
SCRANTON       SUNNY     53  28  38 N8G22     30.33S
$$

CTZ002-004>006-009-010-012-RIZ004-006-007-MAZ004-011-015-191700-
SOUTHERN NEW ENGLAND
 IN CT

CITY           SKY/WX    TMP DP  RH WIND       PRES   REMARKS
BRADLEY INTL   MOSUNNY   59  29  31 NW16G22   30.24S
HARTFORD       SUNNY     58  31  35 NW13G20   30.25S
DANBURY        SUNNY     58  27  30 N21G26    30.27S
WTRBRY/OXFORD  NOT AVBL
BRIDGEPORT     SUNNY     61  26  26 N16G28    30.25S
MERIDEN        MOSUNNY   59  30  33 N13G20    30.25S
NEW HAVEN      SUNNY     60  29  30 NW8G21    30.24S
CHESTER        FAIR      57  30  35 N15G21    30.24S
GROTON         SUNNY     61  28  28 NW15G26   30.21F
WILLIMANTIC    SUNNY     58  28  32 NW16G25   30.22F

 IN RI

CITY           SKY/WX    TMP DP  RH WIND       PRES   REMARKS
PROVIDENCE     MOSUNNY   62  28  27 N10       30.19S
BLOCK ISLAND   MOSUNNY   52  37  58 W15       30.22S
WESTERLY       SUNNY     60  27  28 NW8G18    30.21F

 IN MA

CITY           SKY/WX    TMP DP  RH WIND       PRES   REMARKS
BOSTON         MOSUNNY   59  32  36 NW10G20   30.19F
WORCESTER      MOSUNNY   53  29  39 NW12G23   30.21R
WESTFIELD      SUNNY     59  30  33 NW18G29   30.23F
PROVINCETOWN   SUNNY     52  37  58 MISG      30.20S
NANTUCKET      MOSUNNY   55  37  50 W10       30.19S
$$

ANZ330-335-338-340-345-350-353-355-191700-
COASTAL MARINE OBSERVATIONS


STATION/POSITION TIME  SKY/WX   TEMP    WIND        PRES    VSBY  WAVE
                                AIR SEA DIR/SP/G                  HT/PER
                 (UTC)          (F)     (DEG/KT/KT) (MB)    (MI)  (FT/S)
NY HARB ENTRANCE 1600            46 44  120/  6/  8 1024.9
4S FIRE IS       1500               45                N/A           4/10
23SW MTP         1600            43 43  250/ 10/ 12 1024.1          4/10
HUDSON CANYON    1500            44 44  290/  8/ 10 1025.3          5/10
EXECUTION ROCKS  1600            56 42  340/ 12/ 16   N/A
WESTERN LI SOUND 1600            50     190/  6/  8   N/A           0
CENTRAL LI SOUND 1500            43 42  240/  8/ 10   N/A           0
EASTERN LI SOUND NOT AVBL
ROBBINS REEF     1600            58     360/ 15/ 19   N/A
$$


>>>>>>>>>>>>>>>>>>>>>>>>>>>> KEY <<<<<<<<<<<<<<<<<<<<<<<<<<<
>                                                          <
>     SKY/WX - SKY CONDITION/PRESENT WEATHER               <
>     TMP    - TEMPERATURE IN FAHRENHEIT                   <
>     DP     - DEWPOINT IN FAHRENHEIT                      <
>     RH     - RELATIVE HUMIDITY IN PERCENT                <
>     WIND   - DIRECTION AND SPEED IN MPH                  <
>     PRES   - MEAN SEA LEVEL PRESSURE IN INCHES OF HG     <
>     WCI    - WIND CHILL INDEX                            <
>     VSB    - VISIBILITY IN MILES                         <
>     HX     - HEAT INDEX                                  <
>     TC     - TEMPERATURE IN CELSIUS                      <
>     VRB    - VARIABLE WIND DIRECTION                     <
>                                                          <
>>>>>>>>>>>>>>>>>>>>>>>>>>>> KEY <<<<<<<<<<<<<<<<<<<<<<<<<<<





USA.gov is the U.S. government's official web portal to all federal, state and local government web resources and services.